Volver al catálogo

COSMOS 1818 COOLANT

LostLEO
NORAD 36951·DEBRIS·🇷🇺 Russia

Lanzado Feb 1, 1987 desde Baikonur Cosmodrome

Loading…

Próximos Pases (próximas 24 horas)

TLE

ObsoletoSource: Space-Track

Época: May 15, 2016, 09:21 UTC

1 36951U 87011AF  16136.38961746 +.00000217 +00000-0 +11491-3 0  9991
2 36951 064.9952 119.0963 0020734 232.9739 127.0624 14.33348672085366

Sigue COSMOS 1818 COOLANT en tiempo real con AllMySat

Download on the App Store